www.pogodaiklimat.ru

Погода и климат >> Архив погоды >> Хорватия >> Дарувар


ПОГОДА в Даруваре

  • Прогноз погоды в Даруваре
  • Монитор погоды в Даруваре

АРХИВ ПОГОДЫ в Даруваре

Время (UTC), дата Ветер
(напр.,м/с)
 
Видим.   Явления Облачность Т
(С)
Тd
(С)
f
(%)
Тe
(С)
Тes
(С)
Комфортность P
(гПа)
Po
(гПа)
Тmin
(С)
Tmax
(С)
R
(мм)
R24
(мм)
S
(см)
04 19.08 штиль 0 н/о н/о +16.9 +15.5 91 +17 +17 1017.0 997.7
05 19.08 В 1 н/о н/о +16.7 +14.4 86 +18 +18 1017.2 997.9
06 19.08 ЮВ 1 20 км ясно +18.7 +14.7 78 +21 +24 комфорт 1016.8 998.7 +15.8
07 19.08 ЮВ 2 20 км ясно +24.8 +13.1 48 +27 +33 жарко 1016.2 998.5
08 19.08 Ю 2 20 км ясно +27.4 +12.7 40 +29 +38 жарко 1016.1 998.5
09 19.08 Ю 2 20 км ясно +29.1 +12.1 35 +30 +43 жарко 1016.0 998.5
10 19.08 Ю 2 20 км ясно +30.3 +11.0 30 +30 +45 жарко 1016.1 998.7
11 19.08 З 2 20 км ясно +31.2 +11.7 30 +32 +47 жарко 1016.3 998.9
12 19.08 СЗ 1 20 км ясно +31.6 +11.8 30 +32 +49 жарко 1016.3 999.0
13 19.08 ЮЗ 2 20 км 1/0
[Ci fib]
+32.2 +12.9 31 +33 +44 жарко 1016.3 999.0
14 19.08 ЮЗ 2 н/о н/о +32.7 +15.7 36 +35 +35 душно 1016.5 998.2
15 19.08 З 1 н/о н/о +33.5 +15.6 34 +36 +36 очень
душно
1016.5 998.2
16 19.08 ЮЗ 1 н/о н/о +31.6 +17.9 44 +36 +36 очень
душно
1016.2 997.8
17 19.08 штиль 0 н/о н/о +29.7 +20.3 57 +36 +36 очень
душно
1016.5 998.0
18 19.08 ЮВ 1 20 км 3/0
[Ci fib]
+26.4 +17.9 60 +31 +31 душно 1015.8 998.2 +33.2
19 19.08 В 1 20 км ясно +22.8 +18.6 77 +29 +29 очень
душно
1016.6 998.8
20 19.08 Ю 1 20 км ясно +21.2 +18.2 83 +25 +25 комфорт 1017.1 999.2
21 19.08 штиль 0 н/о н/о +19.7 +17.0 84 +22 +22 комфорт 1018.6 999.4
00 20.08 штиль 0 н/о н/о +18.1 +16.7 92 +18 +18 1018.7 999.4
03 20.08 штиль 0 н/о н/о +16.6 +15.5 93 +16 +16 1019.3 999.9
04 20.08 штиль 0 н/о н/о +16.4 +15.7 96 +16 +16 1019.7 1000.3
05 20.08 штиль 0 н/о н/о +17.0 +16.3 96 +17 +17 1019.6 1000.2
06 20.08 СЗ 1 20 км ясно +19.1 +16.4 84 +22 +25 комфорт 1018.8 1000.7 +16.2
07 20.08 С 1 20 км ясно +23.7 +17.6 69 +28 +34 душно 1018.6 1000.8
08 20.08 С 1 20 км ясно +26.4 +17.4 58 +31 +41 душно 1018.6 1001.0
09 20.08 С 1 20 км ясно +28.5 +17.6 52 +33 +47 очень
душно
1018.4 1000.9
10 20.08 СЗ 2 20 км ясно +30.2 +16.3 43 +33 +48 душно 1018.1 1000.7
11 20.08 СЗ 1 20 км ясно +31.9 +15.3 37 +34 +52 опасность
солнечного
удара
1017.8 1000.5
12 20.08 С 2 20 км ясно +32.7 +14.9 34 +34 +49 очень
жарко
1017.4 1000.1
13 20.08 С 2 20 км ясно +33.6 +15.3 33 +35 +47 душно 1017.1 999.9
14 20.08 н/о н/о +34.2 +18.7 40 1017.6 999.4
15 20.08 С 2 н/о н/о +34.5 +19.0 40 +39 +39 очень
душно
1017.4 999.2
16 20.08 С 2 н/о н/о +33.8 +18.8 41 +39 +39 очень
душно
1017.1 998.8
17 20.08 Ю 1 н/о н/о +30.8 +21.9 59 +39 +39 очень
душно
1017.2 998.8
18 20.08 ЮВ 1 20 км ясно +27.6 +21.6 70 +35 +35 очень
душно
1016.7 999.2 +34.6
19 20.08 ЮВ 1 20 км ясно +24.8 +20.9 79 +31 +31 очень
душно
1017.3 999.6
20 20.08 З 1 20 км ясно +22.7 +20.0 85 +29 +29 очень
душно
1017.7 999.9
21 20.08 В 1 н/о н/о +20.9 +19.1 89 +26 +26 душно 1018.8 999.7
00 21.08 В 1 н/о н/о +18.3 +16.9 92 +20 +20 1018.0 998.8
03 21.08 штиль 0 н/о н/о +17.2 +16.0 93 +17 +17 1018.3 999.0
04 21.08 З 1 н/о н/о +16.8 +15.7 93 +18 +18 1019.0 999.6
05 21.08 С 2 н/о н/о +18.1 +16.9 93 +19 +19 1020.1 1000.8
06 21.08 С 6 20 км 3/0
[Ac cast]
+21.6 +16.5 73 +25 +26 комфорт 1019.6 1001.7 +16.5
07 21.08 С 7 20 км 5/4 1000 м
[Cu hum Ac trans]
+23.6 +17.7 70 +28 +29 душно 1020.2 1002.4
08 21.08 С 5 20 км 5/5 1000 м
[Cu hum]
+23.4 +15.3 60 +28 +30 душно 1020.8 1002.9
09 21.08 С 6 20 км 5/5 1000 м
[Cu hum]
+25.3 +14.1 50 +28 +30 жарко 1021.4 1003.6
10 21.08 С 6 20 км 1/1 1000 м
[Cu hum]
+26.3 +14.0 47 +29 +34 жарко 1021.6 1003.9
11 21.08 С 5 20 км 1/1 1000 м
[Cu hum]
+26.8 +13.7 44 +29 +36 жарко 1021.7 1004.0
12 21.08 С 7 20 км 1/0
[Ac trans]
+26.7 +12.9 42 +28 +32 жарко 1021.6 1003.9
13 21.08 С 5 20 км 3/0
[Ac trans]
+26.3 +13.0 44 +28 +33 жарко 1021.6 1003.9
14 21.08 С 5 н/о н/о +27.5 +15.9 49 +31 +31 душно 1022.3 1003.6
15 21.08 С 4 н/о н/о +26.8 +15.6 50 +30 +30 душно 1022.9 1004.1
16 21.08 С 5 н/о н/о +26.2 +15.0 50 +29 +29 жарко 1022.8 1004.0
17 21.08 С 4 н/о н/о +23.8 +15.1 58 +27 +27 жарко 1023.3 1004.3
18 21.08 С 4 20 км 5/5 1000 м
[Cu Sc]
+21.8 +12.8 57 +24 +24 комфорт 1023.3 1005.3 +27.6
19 21.08 С 4 20 км 3/3 1000 м
[Sc]
+20.0 +12.5 62 +22 +22 комфорт 1024.1 1006.0
20 21.08 С 4 20 км ясно +19.3 +13.2 68 +21 +21 комфорт 1024.4 1006.2
21 21.08 С 2 н/о н/о +18.4 +13.5 73 +19 +19 1025.8 1006.4
00 22.08 СЗ 1 н/о н/о +17.3 +13.7 79 +18 +18 1026.0 1006.5
03 22.08 СЗ 1 н/о н/о +16.0 +13.2 83 +17 +17 1025.4 1005.9
04 22.08 СЗ 1 н/о н/о +15.2 +13.1 87 +16 +16 1025.6 1006.0
05 22.08 СЗ 1 н/о н/о +15.5 +13.6 88 +16 +16 1025.9 1006.3
06 22.08 С 3 20 км 3/0
[Ac trans]
+17.3 +13.1 76 +17 +19 1024.8 1006.5 +15.0
07 22.08 С 3 20 км 3/0
[Ac trans]
+19.2 +13.5 70 +21 +25 комфорт 1024.5 1006.3
08 22.08 С 2 20 км 3/0
[Ac trans]
+21.6 +13.5 60 +24 +32 комфорт 1024.3 1006.3
09 22.08 СЗ 2 20 км 1/0
[Ac trans]
+23.0 +13.5 55 +26 +38 жарко 1024.1 1006.1
10 22.08 С 2 20 км 1/0
[Ac trans]
+24.4 +13.3 50 +27 +40 жарко 1023.9 1006.0
11 22.08 СЗ 2 20 км 1/0
[Ac trans]
+25.7 +13.2 46 +28 +42 жарко 1023.1 1005.3
12 22.08 З 1 20 км 1/1 1000 м
[Cu hum]
+27.2 +14.0 44 +29 +44 жарко 1022.7 1005.0
13 22.08 С 2 20 км 1/1 1000 м
[Cu hum]
+28.0 +14.4 43 +30 +40 жарко 1022.3 1004.7
14 22.08 С 3 н/о н/о +28.6 +16.9 49 +32 +32 душно 1022.5 1003.8
15 22.08 С 3 н/о н/о +28.4 +17.4 51 +32 +32 душно 1022.0 1003.3
16 22.08 С 3 н/о н/о +28.5 +17.1 50 +32 +32 душно 1021.9 1003.2
17 22.08 С 3 н/о н/о +26.0 +18.2 62 +31 +31 очень
душно
1022.4 1003.6
18 22.08 СЗ 1 20 км 4/0
[Ac As Ci fib]
+24.7 +17.4 64 +29 +29 душно 1021.7 1003.9 +28.5
19 22.08 С 2 20 км 4/0
[Ac As]
+23.0 +18.0 73 +28 +28 душно 1022.5 1004.6
20 22.08 З 1 20 км 3/0
[Ci fib]
+21.3 +18.3 83 +26 +26 душно 1023.1 1005.1
21 22.08 З 1 н/о н/о +20.1 +17.9 87 +24 +24 комфорт 1024.2 1005.0
00 23.08 З 1 н/о н/о +19.2 +17.2 88 +22 +22 комфорт 1024.4 1005.1
03 23.08 штиль 0 н/о н/о +18.3 +16.7 90 +19 +19 1023.8 1004.5
04 23.08 н/о н/о +18.5 +16.5 88 1023.9 1004.6
05 23.08 С 2 н/о н/о +18.5 +16.7 89 +20 +20 1024.3 1005.0
06 23.08 С 3 20 км ясно +19.5 +16.7 84 +22 +24 комфорт 1023.1 1005.0 +18.3
07 23.08 СВ 2 20 км 3/0
[Ci fib]
+22.5 +17.8 75 +28 +33 душно 1023.0 1005.1
08 23.08 ЮВ 1 20 км 3/0
[Ci fib]
+25.1 +18.2 66 +30 +39 душно 1023.2 1005.4
09 23.08 СВ 2 20 км 3/3 1000 м
[Cu hum Ci fib]
+27.1 +18.0 58 +32 +40 очень
душно
1023.3 1005.6
10 23.08 С 3 20 км 10/1 1000 м
[Cu hum As trans]
+27.1 +18.0 58 +32 +36 очень
душно
1023.0 1005.3
11 23.08 С 4 20 км 10/3 1000 м
[Cu hum As trans]
+28.1 +17.5 53 +32 +35 душно 1022.4 1004.8
12 23.08 С 5 20 км 10/3 1000 м
[Cu hum As trans]
+28.7 +17.2 50 +33 +35 очень
душно
1022.0 1004.4
13 23.08 СВ 4 20 км 8/3 1000 м
[Cu hum As trans]
+29.3 +16.8 47 +33 +36 душно 1021.5 1004.0
14 23.08 С 4 н/о н/о +29.9 +18.7 51 +35 +35 очень
душно
1022.0 1003.4
15 23.08 н/о н/о +29.5 +19.3 54 1021.7 1003.1
16 23.08 С 2 н/о н/о +28.6 +19.6 58 +34 +34 очень
душно
1021.7 1003.0
17 23.08 С 2 н/о н/о +27.5 +19.9 63 +33 +33 очень
душно
1021.5 1002.8
18 23.08 ЮЗ 1 20 км 4/0
[Ac As]
+25.1 +20.6 76 +31 +31 очень
душно
1020.9 1003.2 +29.9
19 23.08 ЮЗ 1 20 км 3/0
[Ac trans]
+23.1 +20.3 84 +30 +30 очень
душно
1021.8 1003.9
20 23.08 Ю 1 20 км ясно +21.9 +19.8 88 +28 +28 душно 1021.8 1003.9
21 23.08 штиль 0 н/о н/о +20.7 +18.9 89 +25 +25 комфорт 1022.7 1003.5
00 24.08 С 1 н/о н/о +19.3 +18.4 95 +23 +23 комфорт 1021.7 1002.5
03 24.08 штиль 0 н/о н/о +18.9 +17.8 93 +20 +20 1022.0 1002.7
04 24.08 штиль 0 н/о н/о +18.8 +17.9 95 +20 +20 1021.8 1002.5
05 24.08 ЮЗ 1 н/о н/о +18.3 +17.6 96 +20 +20 1021.5 1002.2
06 24.08 СВ 1 20 км 6/0
[Ci fib]
+21.8 +19.9 89 +27 +30 душно 1020.0 1002.1 +17.7
07 24.08 СВ 2 20 км 8/8 1000 м
[Cu Sc]
+22.8 +18.6 77 +29 +30 очень
душно
1019.9 1002.0
08 24.08 СВ 2 20 км гроза без осадков 8/8 1000 м
[Cb cap]
+23.5 +18.6 74 +28 +30 душно 1020.1 1002.3
09 24.08 СВ 1 10 км гроза, ливневой дождь 10/4 1000 м
[Cb cap As op]
+23.3 +19.1 77 +30 +31 очень
душно
1020.5 1002.7
10 24.08 З 2 20 км в посл. час гроза {ливн. осадки} 10/10 1000 м
[Cu Sc]
+23.8 +21.0 84 +30 +30 очень
душно
1020.3 1002.5
11 24.08 З 1 20 км 10/10 1000 м
[Cu Sc]
+25.2 +20.4 75 +31 +31 очень
душно
1019.8 1002.1
12 24.08 С 3 20 км {гроза, ливн. осадки} 8/8 1000 м
[Cu Sc]
+26.3 +19.3 65 +32 +34 очень
душно
1019.2 1001.6 3
13 24.08 СВ 4 20 км 8/8 1000 м
[Cu Sc]
+28.3 +19.3 58 +34 +35 очень
душно
1018.3 1000.8
14 24.08 СВ 4 н/о н/о +30.3 +21.2 58 +38 +38 очень
душно
1018.7 1000.2
15 24.08 СВ 3 н/о н/о +29.8 +20.2 56 +36 +36 очень
душно
1019.0 1000.5
16 24.08 В 1 н/о н/о +29.7 +20.9 59 +37 +37 очень
душно
1018.9 1000.4
17 24.08 Ю 1 н/о н/о +27.3 +22.1 73 +35 +35 очень
душно
1019.1 1000.4
18 24.08 Ю 1 20 км 10/10 1000 м
[Cu Sc]
+25.6 +21.7 79 +33 +33 очень
душно
1018.1 1000.5 +30.3 3
19 24.08 ЮВ 1 20 км 10/10 1000 м
[Cu Sc]
+24.6 +21.3 82 +31 +31 очень
душно
1018.8 1001.1
20 24.08 ЮВ 1 20 км 8/8 1000 м
[Cu Sc]
+23.7 +21.4 87 +30 +30 очень
душно
1019.1 1001.3
21 24.08 штиль 0 н/о н/о +22.8 +21.5 92 +30 +30 очень
душно
1020.3 1001.3
00 25.08 н/о н/о +21.2 +18.1 82 1020.5 1001.4
03 25.08 С 1 н/о н/о +19.2 +17.9 92 +22 +22 комфорт 1019.9 1000.7
04 25.08 З 2 н/о н/о +18.8 +17.5 92 +21 +21 комфорт 1020.1 1000.9
05 25.08 СЗ 2 н/о н/о +18.9 +17.8 93 +21 +21 комфорт 1020.1 1000.9
06 25.08 С 1 20 км {дождь} 8/8 1000 м
[Cu Sc]
+19.2 +17.8 92 +22 +23 комфорт 1019.6 1001.5 +18.8 2
07 25.08 З 1 20 км гроза без осадков 9/9 1000 м
[Cb cap]
+19.9 +18.5 92 +24 +25 комфорт 1019.7 1001.7
08 25.08 С 1 20 км в посл. час гроза 9/9 1000 м
[Cu Sc]
+20.6 +17.8 84 +25 +26 комфорт 1020.1 1002.1
09 25.08 З 1 20 км 8/8 1000 м
[Cu Sc]
+23.1 +18.3 74 +29 +32 очень
душно
1019.7 1001.9
10 25.08 ЮЗ 2 20 км 8/8 1000 м
[Cu Sc]
+23.6 +18.8 74 +28 +31 душно 1019.9 1002.1
11 25.08 ЮВ 1 20 км 6/3 1000 м
[Cu hum Ci fib]
+25.4 +17.2 60 +29 +40 душно 1019.4 1001.7
12 25.08 С 2 20 км {гроза} 8/4 1000 м
[Cu Sc Ci fib]
+27.4 +18.4 58 +32 +39 очень
душно
1018.9 1001.3
13 25.08 С 2 20 км 4/3 1000 м
[Cu med, cong Ci sp]
+28.4 +17.3 51 +32 +40 душно 1018.3 1000.8
14 25.08 СЗ 2 н/о н/о +29.4 +19.8 56 +35 +35 очень
душно
1018.8 1000.2
15 25.08 СВ 2 н/о н/о +29.5 +18.7 52 +35 +35 очень
душно
1018.6 1000.1
16 25.08 С 2 н/о н/о +28.9 +19.3 56 +34 +34 очень
душно
1018.9 1000.3
17 25.08 С 2 н/о н/о +27.4 +19.3 61 +33 +33 очень
душно
1018.9 1000.2
18 25.08 ЮЗ 1 20 км 3/1 1000 м
[Cu hum Ci fib]
+25.0 +19.1 70 +30 +30 душно 1018.1 1000.4 +29.4
19 25.08 ЮВ 1 20 км 1/1 1000 м
[Cu hum]
+22.6 +19.0 80 +28 +28 душно 1019.0 1001.2
20 25.08 ЮЗ 1 20 км 3/0
[Ci sp]
+21.7 +19.1 85 +27 +27 душно 1019.4 1001.5
21 25.08 штиль 0 н/о н/о +21.3 +19.5 89 +26 +26 душно 1020.3 1001.2
00 26.08 штиль 0 н/о н/о +19.3 +18.4 95 +21 +21 комфорт 1019.7 1000.5
03 26.08 С 1 н/о н/о +17.8 +17.1 96 +19 +19 1019.9 1000.6
04 26.08 штиль 0 н/о н/о +17.4 +16.8 96 +17 +17 1019.9 1000.6

 

Местоположение метеостанции Дарувар (Хорватия): широта 45.60 долгота 17.23 высота над уровнем моря 161 м.

В архиве по умолчанию представлена погода в Даруваре за последнюю неделю. Архивные данные за месяц целиком и за предыдущие месяцы, начиная с января 2011 года, Вы можете получить, выбрав интересующий диапазон дат из раскрывающегося списка и нажав кнопку "Ввод!".


*Определитесь, кто Вы:
робот инопланетянин человек

Внимание! Время в таблицах - всемирное. Для получения местного времени необходимо прибавить поправку, которая равна 1 ч.

Смотрите также архив погоды в соседних городах и на ближайших метеорологических станциях:

Погода на Било-Горе (Хорватия) (31 км)
Погода в Бьеловаре (Хорватия) (33 км)
Погода в Сисаке (Хорватия) (68 км)
Погода в Крижевцах (Хорватия) (71 км)
Погода в Славонски-Броде (Хорватия) (77 км)
Погода в Пече (Венгрия) (89 км)
Погода в Баня-Луке (Босния и Герцеговина) (91 км)
Погода в Загреб аэропорту (Хорватия) (91 км)
Погода в Загребе (Хорватия) (96 км)
Погода в Надьканиже (Венгрия) (97 км)

Пояснения к столбцам:

Ветер - указаны скорость ветра в м/с - средняя за 10 мин, порывы в срок и между сроками (в фигурных скобках) и направление, откуда дует ветер: С - северный, СВ - северо-восточный, В - восточный, ЮВ - юго-восточный, Ю - южный, ЮЗ - юго-западный, З - западный, СЗ - северо-западный.
Видимость - горизонтальная дальность видимости в метрах или километрах. При видимости от 1 до 10 км при отсутствии осадков обычно наблюдается дымка, при ухудшении видимости до 1 км и менее - туман. В сухую погоду видимость может ухудшаться дымом, пылью или мглою.
Явления - указаны атмосферные явления, наблюдавшиеся в срок или в последний час перед сроком; фигурными скобками обозначены явления, наблюдавшиеся между сроками (за 1-3 часа до срока); квадратными скобками обозначены град или гололедные отложения с указанием их диаметра в мм.
Облачность - указаны через наклонную черту общая и нижняя облачность в баллах и высота нижней границы облаков в метрах; квадратными скобками обозначены формы облаков: Ci - перистые, Cs - перисто-слоистые, Cc - перисто-кучевые, Ac - высококучевые, As - высокослоистые, Sc - слоисто-кучевые, Ns - слоисто-дождевые, Cu - кучевые, Cb - кучево-дождевые. Подробнее классификацию облаков см. в Атласе облаков (PDF).
T - Температура воздуха - температура, измеренная на высоте 2 м над землей.
Td - Температура точки росы - температура, при понижении до которой содержащийся в воздухе водяной пар достигнет насыщения.
f - Относительная влажность воздуха - влажноcть воздуха, измеренная на высоте 2 м над землей.
Te - Эффективная температура - температура, которую ощущает одетый по сезону человек в тени. Характеристика душности погоды. При расчете учитывается влияние влажности воздуха и скорости ветра на теплоощущения человека.
Tes - Эффективная температура на солнце - температура, которую ощущает человек, с поправкой на солнечный нагрев. Характеристика знойности погоды. Зависит от высоты солнца над горизонтом, облачности и скорости ветра. Ночью, в пасмурную погоду, а также при ветре 12 м/с и более поправка равна нулю.
P - Атмосферное давление - приведенное к уровню моря атмосферное давление.
Po - Атмосферное давление - измеренное на уровне метеостанции атмосферное давление.
Tmin - Минимальная температура - минимум температуры воздуха на высоте 2 м над землей.
Tmax - Максимальная температура - максимум температуры воздуха на высоте 2 м над землей.
R - Количество осадков - Количество выпавших осадков за период времени, мм. При наведении курсора мыши на число - период времени, за который выпало указанное количество осадков.
R24 - Количество осадков - Количество выпавших осадков за 24 часа, мм.
S - Снежный покров - Высота снежного покрова, см. При наведении курсора мыши на число - состояние снежного покрова и степень покрытия местности в баллах.